Location: Bun Machan
(52.1403°N, 7.3744°W)
Time: 19:10:06
(UTC+00:00)

Cosmos 1869 Rocket - Pass Details

Date: 14 July 2020
Orbit: 606 x 632 km, 82.5° (Epoch: 12 August)

Event Time Altitude Azimuth Distance (km) Brightness Sun altitude
Exits shadow 02:04:43 19° 175° (S) 1,459 4.9 -13.7°
Maximum altitude 02:07:44 65° 97° (E) 671 3.8 -13.5°
Drops below altitude 10° 02:12:04 10° 16° (NNE) 1,977 7.6 -13.3°
Sets 02:14:19 0° 13° (NNE) 2,889 8.8 -13.1°
